Weather History for KECP

Nearest airport to NA, NA.

See history from more local stations
Change the Weather History Date:

Thursday, August 14, 2014

  Actual Average Record
Temperature  
Mean Temperature 84 °F -  
Max Temperature 92 °F - 92 °F (2014)
Min Temperature 75 °F - 75 °F (2012)
Degree Days  
Heating Degree Days 0    
Cooling Degree Days 19    
Growing Degree Days 33 (Base 50)    
Moisture  
Dew Point 73 °F    
Average Humidity 72    
Maximum Humidity 91    
Minimum Humidity 52    
Precipitation  
Precipitation T in - 0.35 in (2013)
Month to date precipitation T  
Year to date precipitation 47.63  
Sea Level Pressure  
Sea Level Pressure 30.00 in    
Wind  
Wind Speed 3 mph (NW)    
Max Wind Speed 16 mph    
Max Gust Speed 21 mph    
Visibility 10 miles    
Events      
T = Trace of Precipitation, MM = Missing Value Source: NWS Daily Summary

Daily Weather History Graph

Daily Weather History Graph

Search for Another Location

Airport or City:

Trip Planner

Search our weather history database for the weather conditions in past years. The results will help you decide how hot, cold, wet, or windy it might be!

Date:

Astronomy

Aug. 14, 2014 Rise Set
Actual Time 7:09 AM EDT 8:25 PM EDT
Civil Twilight 6:44 AM EDT 8:50 PM EDT
Nautical Twilight 6:14 AM EDT 9:21 PM EDT
Astronomical Twilight 5:42 AM EDT 9:52 PM EDT
Moon 11:12 PM EDT (8/14) 11:22 AM EDT (8/14)
Length of Visible Light 14h 06m
Length of Day
13h 16m
Waning Gibbous, 79% of the Moon is Illuminated
Aug 14
Waning Gibbous
Aug 17
Last Quarter
Aug 25
New
Sep 2
First Quarter
Sep 8
Full

Hourly Weather History & Observations

Time (EDT) Temp. Heat Index Dew Point Humidity Pressure Visibility Wind Dir Wind Speed Gust Speed Precip Events Conditions
12:53 AM 79.0 °F - 75.0 °F 88% 29.99 in 10.0 mi Calm Calm - N/A   Clear
1:53 AM 78.1 °F - 75.0 °F 90% 29.99 in 10.0 mi Calm Calm - N/A   Scattered Clouds
2:53 AM 77.0 °F - 73.9 °F 90% 29.99 in 9.0 mi Calm Calm - N/A   Clear
3:53 AM 77.0 °F - 73.9 °F 90% 29.98 in 9.0 mi North 5.8 mph - N/A   Clear
4:53 AM 77.0 °F - 73.9 °F 90% 29.98 in 10.0 mi NE 3.5 mph - N/A   Clear
5:53 AM 75.9 °F - 72.0 °F 87% 29.99 in 10.0 mi North 4.6 mph - N/A   Clear
6:53 AM 75.0 °F - 71.1 °F 87% 30.01 in 10.0 mi North 3.5 mph - N/A   Clear
7:53 AM 75.9 °F - 71.1 °F 85% 30.02 in 10.0 mi NNE 3.5 mph - N/A   Clear
8:53 AM 80.1 °F 83.6 °F 71.1 °F 74% 30.03 in 10.0 mi NNE 4.6 mph - N/A   Clear
9:53 AM 84.0 °F 87.8 °F 69.1 °F 61% 30.04 in 10.0 mi North 3.5 mph - N/A   Clear
10:53 AM 87.1 °F 90.6 °F 68.0 °F 53% 30.05 in 10.0 mi East 5.8 mph - N/A   Clear
11:53 AM 88.0 °F 94.7 °F 72.0 °F 59% 30.05 in 10.0 mi Variable 3.5 mph - N/A   Clear
12:53 PM 90.0 °F 97.9 °F 73.0 °F 57% 30.04 in 10.0 mi Variable 3.5 mph - 0.00 in   Clear
1:53 PM 91.9 °F 98.4 °F 71.1 °F 50% 30.01 in 10.0 mi Variable 4.6 mph - 0.00 in   Mostly Cloudy
2:53 PM 88.0 °F 96.5 °F 73.9 °F 63% 29.99 in 10.0 mi South 10.4 mph - N/A   Overcast
3:53 PM 89.1 °F 97.0 °F 73.0 °F 59% 29.98 in 10.0 mi SSW 9.2 mph - 0.00 in   Partly Cloudy
4:53 PM 89.1 °F 99.1 °F 75.0 °F 63% 29.97 in 10.0 mi South 8.1 mph - 0.00 in   Partly Cloudy
5:53 PM 90.0 °F 99.0 °F 73.9 °F 59% 29.96 in 10.0 mi South 8.1 mph - N/A   Scattered Clouds
6:53 PM 86.0 °F 93.0 °F 73.0 °F 65% 29.96 in 10.0 mi WSW 9.2 mph - N/A   Scattered Clouds
7:53 PM 84.9 °F 92.1 °F 73.9 °F 69% 29.97 in 10.0 mi WSW 3.5 mph - N/A   Clear
8:53 PM 82.0 °F 88.6 °F 75.0 °F 79% 29.98 in 10.0 mi Calm Calm - N/A   Clear
9:53 PM 82.0 °F 87.9 °F 73.9 °F 76% 30.00 in 10.0 mi SW 3.5 mph - N/A   Clear
10:53 PM 81.0 °F 86.2 °F 73.9 °F 79% 30.01 in 10.0 mi Calm Calm - N/A   Scattered Clouds
11:53 PM 80.1 °F 85.1 °F 75.0 °F 85% 30.01 in 10.0 mi Calm Calm - N/A   Scattered Clouds